DECAYED

STARLINK-3905, 52495 (Decayed)

Orbit data source: Space-Track

STARLINK-3905, 52495 was a payload satellite owned by SpaceX/Seattle (US) in LEO that was launched on Fri, 06 May 2022 UTC via an FALCON 9 launch vehicle from the Air Force Eastern Test Range (AFETR). Payload-class satellites include a variety of spacecraft equipped with specific instruments for various scientific and technological missions. These include communications satellites like Starlink; space stations such as the ISS; scientific satellites like the Hubble; Earth observation satellites from companies like Planet Labs, Umbra, and HawkEye 360; GPS; miniature CubeSats for education and research; and military/defense satellites.

Not visible in the next 10 days
Identifier
52495, 2022-049AW
Orbit
Decayed
Country
Flag of USUS
Related business
Manufacturer
SpaceX/Seattle
Mission
Decayed Commercial Communications
Bus & Motor
STARLINK, Unknown motor
Mass
297 kg wet, ~220 kg dry
Launch date (UTC)
2022-05-06 (4 years ago)
Launch vehicle
FALCON 9
Launch site
Air Force Eastern Test Range (AFETR)
Object type
Payload
Rocket body
Debris
Shape & HBR
Box + 1 Pan, 10.1 m
Radar Cross Section
13.562 m², Large (>1 m²)

Expand to show TLE details & history
Last TLE update: 9 months ago

TLE from 9 months ago
0 STARLINK-3905
1 52495U 22049AW  25086.57113128  .12861501  12015-4  45141-2 0  9995
2 52495  53.2057 148.3026 0005617 350.3032 119.9860 16.24418437160414
Epoch: 2025-03-27T13:42Z
TLE epoch observation values (Epoch: 2025-03-27T13:42:25.742Z)
Latitude
48.81554°
Longitude
-120.75274°
Altitude
214.951 km
Speed
7.783 km/s
True Right ascension
18h 00m 23s
True Declination
48° 37' 51"
Sunlit
Object was in daylight at epoch
Visualization orbit readout
Latitude
Unknown
Longitude
Unknown
Altitude
Unknown
Speed
Unknown
Apparent Right ascension
Unknown
Apparent Declination
Unknown
Sunlit
N/A
Visualization observer readout
Local Sidereal Time
10:48:33
Azimuth
Unknown
Elevation
Unknown
Doppler factor
Unknown
Orbital elements
Apogee altitude
211.541 km
Perigee altitude
204.142 km
Semi-major axis
6,585.978 km
Eccentricity
0.00056
Inclination
53.2057°
RAAN
148.3026°
Arg. of periapsis
350.3032°
True anomaly
120.04173°
Mean anomaly
119.986°
Eccentric anomaly
120.01387°
Mean motion
4.06081 °/min
Orbital period
88.65 mins
BSTAR
0.0045141
Loading maneuver chart data...
Computing Atmospheric mass density...
Loading historical data...
Loading historical data...
Loading historical data...
Loading historical data...
Loading historical data...
Loading historical data...
Loading historical data...

Documentation

Showing up to 5 results
|